N612HS KMEM-KMEM

Flight info

Callsign N612HS
Flight time N/A
Altitude VFR/013
Route PATTERN
Aircraft PA24/L-DOV/C

Departure

Time 2026-05-04 01:16
Airport Memphis International Airport (KMEM)

Arrival

Time N/A
Airport Memphis International Airport (KMEM)
Time Latitude Longitude Altitude Speed Heading
2026-05-04 01:07 35.05461 -89.98193 269 ft 0 kts 271°
2026-05-04 01:11 35.05462 -89.98274 268 ft 10 kts 287°
2026-05-04 01:12 35.05534 -89.98371 263 ft 21 kts 336°
2026-05-04 01:12 35.05556 -89.98497 260 ft 16 kts 211°
2026-05-04 01:12 35.05465 -89.98508 267 ft 18 kts 181°
2026-05-04 01:12 35.05282 -89.98510 277 ft 41 kts 177°
2026-05-04 01:13 35.05133 -89.98525 291 ft 7 kts 188°
2026-05-04 01:13 35.05022 -89.98572 298 ft 19 kts 209°
2026-05-04 01:13 35.04944 -89.98625 298 ft 11 kts 218°
2026-05-04 01:13 35.04937 -89.98634 298 ft 0 kts 241°
2026-05-04 01:14 35.04936 -89.98636 299 ft 0 kts 243°
2026-05-04 01:14 35.04933 -89.98676 298 ft 14 kts 266°
2026-05-04 01:15 35.04700 -89.98732 304 ft 71 kts 177°
2026-05-04 01:15 35.04155 -89.98724 479 ft 84 kts 179°
2026-05-04 01:15 35.03550 -89.98739 699 ft 91 kts 178°
2026-05-04 01:15 35.02910 -89.98702 923 ft 92 kts 180°
2026-05-04 01:16 35.02263 -89.98755 1118 ft 92 kts 175°
2026-05-04 01:16 35.01645 -89.98821 1299 ft 93 kts 214°
2026-05-04 01:16 35.01450 -89.99586 1334 ft 102 kts 271°
2026-05-04 01:16 35.01541 -90.00402 1452 ft 93 kts 270°
2026-05-04 01:17 35.01807 -90.01080 1399 ft 99 kts 326°
2026-05-04 01:17 35.02554 -90.01102 1341 ft 113 kts
2026-05-04 01:17 35.03339 -90.01036 1344 ft 114 kts
2026-05-04 01:17 35.04129 -90.00997 1337 ft 114 kts
2026-05-04 01:18 35.04926 -90.00954 1374 ft 112 kts 359°
2026-05-04 01:18 35.05699 -90.00930 1380 ft 110 kts 359°
2026-05-04 01:18 35.06446 -90.00915 1411 ft 106 kts 359°
2026-05-04 01:18 35.07011 -90.00410 1284 ft 107 kts 78°
2026-05-04 01:19 35.07023 -89.99542 1132 ft 100 kts 95°
2026-05-04 01:19 35.06725 -89.98864 932 ft 90 kts 170°
2026-05-04 01:19 35.06100 -89.98785 589 ft 91 kts 180°
2026-05-04 01:19 35.05499 -89.98754 415 ft 78 kts 182°
2026-05-04 01:20 35.05027 -89.98743 336 ft 63 kts 182°
2026-05-04 01:20 35.04650 -89.98741 297 ft 50 kts 176°
2026-05-04 01:20 35.04164 -89.98734 380 ft 82 kts 183°